Poplar Bluff, MO

1:35 PM CST on November 11, 2019 (GMT -0600)
Poplar Bluff Municipal

Weather History for KPOF - June, 2019

Change the Weather History Date:

Monday, June 3, 2019

  Actual Average Record
Temperature  
Mean Temperature 72 °F -  
Max Temperature 82 °F 83 °F 99 °F (1944)
Min Temperature 62 °F 61 °F 45 °F (1956)
Cooling Degree Days 7    
Growing Degree Days 22 (Base 50)    
Moisture  
Dew Point 59 °F    
Average Humidity 64    
Maximum Humidity 93    
Minimum Humidity 42    
Precipitation  
Precipitation 0.00 in - - ()
Sea Level Pressure  
Sea Level Pressure 30.04 in    
Wind  
Wind Speed 5 mph (ENE)    
Max Wind Speed 10 mph    
Max Gust Speed -    
Visibility 10 miles    
Events      
Averages and records for this station are not official NWS values.
T = Trace of Precipitation, MM = Missing Value Source: NWS Daily Summary

Daily Weather History Graph

Daily Weather History Graph

Search for Another Location

Airport or City:

Astronomy

Jun. 03, 2019 Rise Set
Actual Time 5:43 AM CDT 8:15 PM CDT
Civil Twilight 5:13 AM CDT 8:46 PM CDT
Nautical Twilight 4:35 AM CDT 9:23 PM CDT
Astronomical Twilight 3:54 AM CDT 10:05 PM CDT
Moon 6:02 AM CDT (6/3) 8:41 PM CDT (6/3)
Length of Visible Light 15h 33m
Length of Day
14h 32m
New Moon, 0% of the Moon is Illuminated
Jun 3
New Moon
Jun 10
First Quarter
Jun 17
Full
Jun 25
Last Quarter
Jul 2
New

Hourly Weather History & Observations

Time (CDT) Temp. Heat Index Dew Point Humidity Pressure Visibility Wind Dir Wind Speed Gust Speed Precip Events Conditions
12:53 AM 66.0 °F - 60.1 °F 81% 29.98 in 10.0 mi North 3.5 mph - N/A   Clear
1:53 AM 64.9 °F - 60.1 °F 84% 29.98 in 10.0 mi Calm Calm - N/A   Clear
2:53 AM 63.0 °F - 61.0 °F 93% 30.00 in 10.0 mi Calm Calm - N/A   Clear
3:53 AM 63.0 °F - 55.9 °F 78% 30.01 in 10.0 mi NNE 5.8 mph - N/A   Clear
4:53 AM 63.0 °F - 57.0 °F 81% 30.02 in 10.0 mi NNE 6.9 mph - N/A   Overcast
5:53 AM 62.1 °F - 55.0 °F 78% 30.04 in 10.0 mi NNE 5.8 mph - N/A   Partly Cloudy
6:53 AM 63.0 °F - 55.9 °F 78% 30.06 in 10.0 mi NE 4.6 mph - N/A   Clear
7:53 AM 66.0 °F - 57.9 °F 75% 30.07 in 10.0 mi ENE 8.1 mph - N/A   Mostly Cloudy
8:53 AM 69.1 °F - 59.0 °F 70% 30.08 in 10.0 mi ENE 8.1 mph - N/A   Partly Cloudy
9:53 AM 73.0 °F - 60.1 °F 64% 30.08 in 10.0 mi ENE 8.1 mph - N/A   Clear
10:53 AM 75.0 °F - 61.0 °F 62% 30.09 in 10.0 mi ENE 6.9 mph - N/A   Clear
11:53 AM 78.1 °F - 61.0 °F 56% 30.09 in 10.0 mi ENE 4.6 mph - N/A   Clear
12:53 PM 78.1 °F - 60.1 °F 54% 30.08 in 10.0 mi East 6.9 mph - N/A   Clear
1:53 PM 80.1 °F 80.7 °F 59.0 °F 48% 30.06 in 10.0 mi ESE 9.2 mph - N/A   Clear
2:53 PM 81.0 °F 81.1 °F 57.9 °F 45% 30.05 in 10.0 mi East 6.9 mph - N/A   Clear
3:53 PM 82.0 °F 81.7 °F 57.0 °F 42% 30.03 in 10.0 mi SE 10.4 mph - N/A   Clear
4:53 PM 81.0 °F 81.0 °F 57.0 °F 44% 30.01 in 10.0 mi ESE 8.1 mph - N/A   Clear
5:53 PM 79.0 °F - 55.9 °F 45% 30.01 in 10.0 mi East 5.8 mph - N/A   Clear
6:53 PM 77.0 °F - 57.9 °F 52% 30.02 in 10.0 mi East 4.6 mph - N/A   Clear
7:53 PM 75.0 °F - 59.0 °F 57% 30.02 in 10.0 mi East 4.6 mph - N/A   Clear
8:53 PM 73.0 °F - 61.0 °F 66% 30.02 in 10.0 mi East 4.6 mph - N/A   Clear
9:53 PM 73.0 °F - 60.1 °F 64% 30.02 in 10.0 mi East 5.8 mph - N/A   Clear
10:53 PM 72.0 °F - 59.0 °F 64% 30.03 in 10.0 mi East 5.8 mph - N/A   Clear
11:53 PM 71.1 °F - 59.0 °F 66% 30.03 in 10.0 mi East 4.6 mph - N/A   Clear